Location: Culleoka
(33.1312°N, 96.4919°W)
Time: 21:45:27
(UTC+00:00)

Cosmos 1500 Rocket - Pass Details

Date: 05 July 2022
Orbit: 602 x 631 km, 82.5° (Epoch: 13 August)

Event Time Altitude Azimuth Distance (km) Brightness Sun altitude
Exits shadow 10:04:46 19° 259° (W) 1,478 5.0 -14.3°
Maximum altitude 10:06:02 22° 283° (WNW) 1,378 5.0 -14.1°
Drops below altitude 10° 10:09:31 10° 334° (NNW) 2,012 6.4 -13.6°
Sets 10:12:12 0° 350° (N) 2,926 7.4 -13.1°
